KM4NDI Weather Reports


time (UTC)temp
C
wind
direction
speed
KPH
gust
KPH
rain 1hr
cm
rain 24hr
cm
rain mn
cm
humidity
%
barometer
mb
20260906100516 22 0.0 0.0 0.10 0.51 0.51 99 1014.8
20260906095519 22 0.0 0.0 0.10 0.51 0.51 99 1014.8
20260906094522 22 0.0 0.0 0.13 0.48 0.48 99 1014.8
20260906093525 22 0.0 0.0 0.13 0.48 0.48 99 1015.0
20260906092528 23 0.0 0.0 0.10 0.46 0.46 99 1014.7
20260906091532 23 0.0 0.0 0.08 0.43 0.43 99 1014.3
20260906090517 23 0.0 0.0 0.05 0.41 0.41 99 1014.1
20260906085540 23 0.0 0.0 0.05 0.41 0.41 99 1014.1
20260906084523 23 0.0 0.0 0.00 0.36 0.36 99 1014.1
20260906083526 23 0.0 0.0 0.00 0.36 0.36 99 1014.1
20260906082529 23 0.0 0.0 0.20 0.36 0.36 99 1014.0
20260906081532 23 0.0 0.0 0.33 0.36 0.36 97 1014.0
20260906080517 23 0.0 0.0 0.33 0.36 0.36 96 1014.1
20260906075520 23 293 0.0 4.8 0.33 0.36 0.36 96 1014.3
20260906074523 24 174 1.6 4.8 0.33 0.36 0.36 96 1014.5
20260906073527 24 144 3.2 8.0 0.33 0.36 0.36 99 1014.8
20260906072530 25 0.0 0.0 0.13 0.15 0.15 99 1014.8
20260906071515 25 0.0 0.0 0.00 0.03 0.03 99 1014.5
20260906070538 25 0.0 0.0 0.00 0.03 0.03 99 1014.3
20260906065541 25 0.0 0.0 0.00 0.03 0.03 99 1014.1
20260906064519 25 0.0 0.0 0.00 0.03 0.03 99 1013.8
20260906063515 25 0.0 0.0 0.00 0.03 0.03 99 1013.8
20260906062530 25 0.0 0.0 0.00 0.03 0.03 98 1013.8
20260906061516 25 0.0 0.0 0.00 0.03 0.03 98 1013.8
20260906060519 25 0.0 0.0 0.00 0.03 0.03 98 1013.8
20260906055522 25 0.0 0.0 0.03 0.03 0.03 98 1013.8
20260906054525 25 0.0 0.0 0.03 0.03 0.03 99 1014.1
20260906053548 25 0.0 0.0 0.03 0.03 0.03 99 1014.3
20260906052531 25 0.0 0.0 0.03 0.03 0.03 99 1014.5
20260906051517 25 0.0 0.0 0.03 0.03 0.03 98 1014.5
20260906050540 25 0.0 0.0 0.03 0.03 0.03 98 1014.6
20260906045523 25 0.0 0.0 0.00 0.00 0.00 98 1014.8
20260906044526 26 0.0 0.0 0.00 0.00 0.00 98 1014.7
20260906043549 26 0.0 0.0 0.00 0.00 0.00 98 1014.6
20260906042533 26 0.0 0.0 0.00 0.00 0.00 97 1014.6
20260906041518 26 0.0 0.0 0.00 0.00 0.00 96 1014.6
20260906040521 26 0.0 0.0 0.00 0.00 0.00 96 1014.7
20260906035524 26 0.0 0.0 0.00 0.00 0.00 94 1014.8
20260906034527 26 0.0 0.0 0.00 0.00 0.00 90 1014.8
20260906033524 26 0.0 0.0 0.00 0.00 0.00 89 1015.0
20260906032515 26 0.0 0.0 0.00 0.00 0.00 89 1014.3
20260906031518 26 0.0 0.0 0.00 0.00 0.00 88 1014.3
20260906030515 26 0.0 0.0 0.00 0.00 0.00 88 1014.2
20260906025525 26 0.0 0.0 0.00 0.00 0.00 87 1014.1
20260906024547 27 0.0 0.0 0.00 0.00 0.00 86 1014.0
20260906023531 27 0.0 0.0 0.00 0.00 0.00 86 1014.1
20260906022516 27 0.0 0.0 0.00 0.00 0.00 85 1014.1
20260906021519 27 0.0 0.0 0.00 0.00 0.00 84 1014.1
20260906020522 27 0.0 0.0 0.00 0.00 0.00 84 1014.0
20260906015525 27 0.0 0.0 0.00 0.00 0.00 82 1013.8
20260906014528 28 0.0 0.0 0.00 0.00 0.00 80 1013.6
20260906013531 28 0.0 0.0 0.00 0.00 0.00 78 1013.3
20260906012536 28 0.0 0.0 0.00 0.00 0.00 76 1012.9
20260906011519 29 0.0 0.0 0.00 0.00 0.00 75 1012.8
20260906010543 29 315 0.0 3.2 0.00 0.00 0.00 72 1012.7
20260906005526 30 225 0.0 4.8 0.00 0.00 0.00 72 1012.6
20260906004529 30 45 0.0 3.2 0.00 0.00 0.00 71 1012.6
20260906003552 30 0.0 0.0 0.00 0.00 0.00 71 1012.6
20260906002517 30 0.0 0.0 0.00 0.00 0.00 68 1012.3
20260906001540 30 225 0.0 3.2 0.00 0.00 0.00 68 1012.3
20260906000523 31 0.0 0.0 0.00 0.00 0.00 64 1012.3
20260905235541 31 0.0 0.0 0.00 0.00 0.00 63 1012.3
20260905234518 32 0.0 0.0 0.00 0.00 0.00 58 1012.6
20260905233515 33 0.0 0.0 0.00 0.00 0.00 55 1012.4
20260905232518 34 0.0 0.0 0.00 0.00 0.00 53 1012.4
20260905231541 35 0.0 0.0 0.00 0.00 0.00 51 1012.4
20260905230525 35 0.0 0.0 0.00 0.00 0.00 50 1012.4
20260905225528 36 0.0 0.0 0.00 0.00 0.00 48 1012.3
20260905224531 36 0.0 0.0 0.00 0.00 0.00 47 1012.3
20260905223516 37 0.0 0.0 0.00 0.00 0.00 44 1012.2
20260905222520 38 0.0 0.0 0.00 0.00 0.00 43 1012.2
20260905221522 37 0.0 0.0 0.00 0.00 0.00 44 1012.2
20260905220525 36 0.0 0.0 0.00 0.00 0.00 48 1012.2
20260905215529 36 121 0.0 4.8 0.00 0.00 0.00 48 1012.2
20260905214532 36 240 0.0 4.8 0.00 0.00 0.00 49 1012.3
20260905213516 36 68 0.0 3.2 0.00 0.00 0.00 48 1012.4
20260905212520 37 225 1.6 6.4 0.00 0.00 0.00 43 1012.6
20260905211523 37 0.0 3.2 0.00 0.00 0.00 45 1012.6
20260905210526 37 0.0 0.0 0.00 0.00 0.00 44 1012.6
20260905205549 37 0.0 0.0 0.00 0.00 0.00 46 1012.6
20260905204526 37 189 1.6 4.8 0.00 0.00 0.00 44 1012.7
20260905203517 36 0.0 0.0 0.00 0.00 0.00 48 1012.9
20260905202540 38 132 3.2 6.4 0.00 0.00 0.00 44 1012.9
20260905201538 37 0.0 0.0 0.00 0.00 0.00 45 1013.0
20260905200515 37 0.0 0.0 0.00 0.00 0.00 45 1013.1
20260905195530 37 135 1.6 4.8 0.00 0.00 0.00 45 1013.1
20260905194515 38 225 1.6 8.0 0.00 0.00 0.00 45 1013.3
20260905193518 37 203 0.0 4.8 0.00 0.00 0.00 46 1013.6
20260905192522 37 0.0 0.0 0.00 0.00 0.00 47 1013.8
20260905191524 37 124 1.6 6.4 0.00 0.00 0.00 47 1013.8
20260905190527 37 180 0.0 4.8 0.00 0.00 0.00 44 1013.9
20260905185531 37 134 3.2 6.4 0.00 0.00 0.00 48 1014.0
20260905184536 38 0.0 0.0 0.00 0.00 0.00 43 1014.1
20260905183519 38 210 1.6 8.0 0.00 0.00 0.00 46 1014.3
20260905182522 37 216 1.6 4.8 0.00 0.00 0.00 48 1014.6
20260905181545 36 172 1.6 3.2 0.00 0.00 0.00 50 1014.7
20260905180528 38 164 1.6 4.8 0.00 0.00 0.00 45 1014.8
20260905175531 37 218 1.6 8.0 0.00 0.00 0.00 48 1014.8
20260905174517 37 253 1.6 6.4 0.00 0.00 0.00 47 1015.3
20260905173519 36 0.0 3.2 0.00 0.00 0.00 51 1015.3
20260905172523 36 160 3.2 6.4 0.00 0.00 0.00 49 1015.3
20260905171526 36 226 1.6 3.2 0.00 0.00 0.00 50 1015.4
20260905170523 36 139 1.6 4.8 0.00 0.00 0.00 50 1015.6
20260905165520 36 184 1.6 6.4 0.00 0.00 0.00 50 1015.7
20260905164517 35 0.0 0.0 0.00 0.00 0.00 52 1015.8
20260905163520 36 180 1.6 4.8 0.00 0.00 0.00 54 1015.9
20260905162523 35 180 0.0 4.8 0.00 0.00 0.00 56 1015.8
20260905161527 35 0.0 3.2 0.00 0.00 0.00 54 1015.8
20260905160530 35 0.0 0.0 0.00 0.00 0.00 56 1016.0
20260905155515 34 214 1.6 4.8 0.00 0.00 0.00 57 1016.1
20260905154518 33 203 0.0 3.2 0.00 0.00 0.00 58 1016.0
20260905153521 33 233 1.6 4.8 0.00 0.00 0.00 59 1016.0
20260905152524 32 0.0 0.0 0.00 0.00 0.00 62 1016.2
20260905151527 32 263 1.6 4.8 0.00 0.00 0.00 63 1016.2
20260905150530 31 0.0 0.0 0.00 0.00 0.00 69 1016.2
20260905145516 31 0.0 0.0 0.00 0.00 0.00 68 1016.2
20260905144519 31 0.0 0.0 0.00 0.00 0.00 70 1016.3
20260905143542 30 0.0 0.0 0.00 0.00 0.00 72 1016.3
20260905142525 29 0.0 0.0 0.00 0.00 0.00 75 1016.3
20260905141528 28 0.0 0.0 0.00 0.00 0.00 77 1016.5
20260905140611 28 0.0 0.0 0.00 0.00 0.00 82 1016.5
20260905135516 27 0.0 0.0 0.00 0.00 0.00 84 1016.6
20260905134520 26 0.0 0.0 0.00 0.00 0.00 90 1016.6
20260905133523 26 0.0 0.0 0.00 0.00 0.00 92 1016.7
20260905132540 25 0.0 0.0 0.00 0.00 0.00 96 1016.7
20260905131617 24 0.0 0.0 0.00 0.00 0.00 98 1016.8
20260905130552 23 0.0 0.0 0.00 0.00 0.00 99 1016.8
20260905125517 23 0.0 0.0 0.00 0.00 0.00 99 1016.7
20260905124620 22 0.0 0.0 0.00 0.00 0.00 99 1016.6
20260905123603 22 0.0 0.0 0.00 0.00 0.00 99 1016.6
20260905122526 22 0.0 0.0 0.00 0.00 0.00 99 1016.5
20260905121530 21 0.0 0.0 0.00 0.00 0.00 99 1016.5
20260905120533 21 0.0 0.0 0.00 0.00 0.00 99 1016.5
20260905115518 21 0.0 0.0 0.00 0.00 0.00 99 1016.3
20260905114521 21 0.0 0.0 0.00 0.00 0.00 99 1016.2
20260905113524 21 0.0 0.0 0.00 0.00 0.00 99 1016.2
20260905112527 21 0.0 0.0 0.00 0.00 0.00 99 1016.1
20260905111530 21 0.0 0.0 0.00 0.00 0.00 99 1016.0
20260905110515 21 0.0 0.0 0.00 0.00 0.00 99 1016.0
20260905105518 21 0.0 0.0 0.00 0.00 0.00 99 1016.0
20260905104522 21 0.0 0.0 0.00 0.00 0.00 99 1016.0
20260905103545 21 0.0 0.0 0.00 0.00 0.00 99 1015.9
20260905102608 21 0.0 0.0 0.00 0.00 0.00 99 1015.8
20260905101525 21 0.0 0.0 0.00 0.00 0.00 99 1015.7